Retour au catalogue

COSMOS 2251 DEB

ActifLEO
NORAD 33799·DEBRIS·🇷🇺 Russia

Lancé Jun 16, 1993 depuis Plesetsk Cosmodrome

Loading…

Prochains Passages (prochaines 24 heures)

TLE

FraisSource: Space-Track

Époque: Sep 14, 2026, 08:41 UTC

1 33799U 93036AQ  26257.36227147  .00008518  00000-0  95941-3 0  9999
2 33799  74.0300 255.8568 0026450 262.1001 164.1157 14.86506205928983

Suivez COSMOS 2251 DEB en temps réel avec AllMySat

Download on the App Store